Location: Bytom
(50.3475°N, 18.9244°E)
Time: 04:43:03
(UTC+01:00)

ISS - Pass Details

Date: 26 January 2019
Orbit: 403 x 411 km, 51.6° (Epoch: 21 February)

Event Time Altitude Azimuth Distance (km) Brightness Sun altitude
Rises 17:35:50 0° 223° (SW) 2,324 1.1 -11.0°
Reaches altitude 10° 17:38:02 10° 212° (SSW) 1,469 -0.3 -11.4°
Maximum altitude 17:41:01 31° 148° (SSE) 738 -2.7 -11.8°
Enters shadow 17:42:46 19° 97° (E) 1,057 -2.3 -12.1°
